Other Public Products
Issued by NWS Grand Forks, ND

Home | Current Version | Previous Version | Graphics & Text | Print | Product List | Glossary On
Versions: 1 2 3 4 5 6 7 8 9 10 11 12 13 14 15 16 17 18 19 20 21 22 23 24 25 26 27 28 29 30 31 32 33 34 35 36 37 38 39 40 41 42 43 44 45 46 47 48 49 50
000
FPUS83 KFGF 271010
OPUFGF
PRAIRIE TO PINES WEATHER ROUNDUP
NATIONAL WEATHER SERVICE EASTERN NORTH DAKOTA/GRAND FORKS ND
500 AM CDT WED MAY 27 2015

 **SATELLITE DATA USED TO AUGMENT SKY COVER AT AUTOMATED STATIONS**
 *****  WEATHER ACROSS EASTERN NORTH DAKOTA  *****

CITY           SKY/WX    TMP DP  RH WIND       PRES   REMARKS
GRAND FORKS    CLEAR     55  48  77 NW8       29.82R
GRAND FORKS AF CLEAR     58  48  69 NW8       29.84R
GRAND CITY NWS   N/A     55 N/A N/A N3          N/A
BUXTON         NOT AVBL
DEVILS LAKE    MOCLDY    55  46  71 N5        29.89R
FARGO          PTCLDY    56  49  77 CALM      29.82R
WAHPETON ARPT  NOT AVBL
$$

 *****  WEATHER ACROSS CENTRAL AND WESTERN NORTH DAKOTA  *****

CITY           SKY/WX    TMP DP  RH WIND       PRES   REMARKS
JAMESTOWN      CLEAR     56  47  71 W8        29.88R
BISMARCK       CLEAR     52  49  89 CALM      29.94R
MINOT          CLEAR     59  45  59 SW12      29.88S
MINOT AFB      CLEAR     55  54  97 W9        29.88R
GARRISON         N/A     55  47  74 W3        29.91R
WILLISTON      PTCLDY    51  44  77 SW5       29.91S
DICKINSON      CLEAR     49  42  77 S6        29.94S
HETTINGER      CLEAR     44  41  89 CALM      29.97S
$$

 *****  OTHER OBSERVATIONS NORTHEAST NORTH DAKOTA  *****

CITY           SKY/WX    TMP DP  RH WIND       PRES   REMARKS
WALHALLA         N/A     54  45  71 MISG      29.90R
LANGDON        FAIR      54  48  82 NE10      29.90R
CAVALIER       FAIR      55  43  62 N13G20    29.88R
GRAFTON        FAIR      57  50  77 N10       29.86R
CANDO          FAIR      54  46  76 N10       29.91R
FORT TOTTEN      N/A     56  46  68 CALM      29.95S
ROLLA          PTSUNNY   50  46  87 N9        29.94R
RUGBY          NOT AVBL
 ***** THE ABOVE OBSERVATIONS ARE NON NWS ARE NOT QUALITY
        CONTROLLED AND MAY MIS-REPORT RAIN FOR SNOW...
$$

 *****  OTHER OBSERVATIONS SOUTHEAST NORTH DAKOTA *****

CITY           SKY/WX    TMP DP  RH WIND       PRES   REMARKS
COOPERSTOWN    NOT AVBL
VALLEY CITY    FAIR      57  48  72 NW10      29.88R
OAKES            N/A     54  54 100 W8        29.88S
GWINNER        NOT AVBL
SHEYENNE NWR     N/A     54  50  85 W6        29.95S
BUFFALO        NOT AVBL
WYNDMERE         N/A     57  52  82 W8          N/A
 ***** THE ABOVE OBSERVATIONS ARE NON NWS ARE NOT QUALITY
       CONTROLLED AND MAY MIS-REPORT RAIN FOR SNOW...
$$

  *****  WEATHER ACROSS NORTHERN MINNESOTA  *****

CITY           SKY/WX    TMP DP  RH WIND       PRES   REMARKS
FLAG ISLAND    CLEAR     55  48  76 NW14      29.79R
WARROAD        CLEAR     52  46  82 NW8       29.81R
ROSEAU         CLEAR     54  46  76 NW5       29.82R
HALLOCK        PTCLDY    55  46  71 NW10      29.85R
THF RVR FALLS  MOCLDY    57  48  72 NW7       29.83R
HALSTAD        NOT AVBL
FOSSTON        PTCLDY    52  50  93 CALM      29.82R
BAUDETTE       CLEAR     55  49  80 NW8       29.78R
WASKISH        CLEAR     61  55  82 W8        29.79R
CROOKSTON      CLEAR     57  48  72 N7        29.82R
$$
  *****  WEATHER ACROSS CENTRAL AND WEST MINNESOTA  *****

CITY           SKY/WX    TMP DP  RH WIND       PRES   REMARKS
BEMIDJI        CLEAR     51  49  95 CALM      29.80R
PARK RAPIDS    CLEAR     53  50  89 CALM      29.81R
WADENA         CLEAR     52  52 100 W5        29.82S
DETROIT LAKES  CLEAR     54  52  94 CALM      29.83S
MOORHEAD       PTCLDY    54  50  87 CALM      29.84R
FERGUS FALLS   PTCLDY    54  54 100 CALM      29.85R
ELBOW LAKE     FAIR      54  50  87 SW5       29.84S
MORRIS MN      CLEAR     55  50  82 W5        29.85R
STAPLES        CLEAR     48  48 100 CALM      29.83R
WHEATON        CLEAR     55  48  76 W5        29.87R
$$
  *****  WEATHER ELSEWHERE ACROSS MINNESOTA  *****

CITY           SKY/WX    TMP DP  RH WIND       PRES   REMARKS
DULUTH         CLOUDY    53  48  83 W9        29.79S
INTRNTL FALLS  CLEAR     47  46  97 CALM      29.76R
ELY            NOT AVBL
CLOQUET        CLOUDY    55  48  76 SW7       29.80S
BRAINERD       PTCLDY    49  49 100 SW5       29.83R
HIBBING        FOG       45  43  93 CALM      29.79R VSB 1/2
ALEXANDRIA     CLEAR     53  52  96 W6        29.86R
SAINT CLOUD    MOCLDY    51  51 100 S5        29.85R
MINNEAPOLIS    CLOUDY    55  55 100 CALM      29.86R
$$

  *****  WEATHER ACROSS SOUTH DAKOTA  *****

CITY           SKY/WX    TMP DP  RH WIND       PRES   REMARKS
SIOUX FALLS    CLEAR     50  46  86 CALM      29.94R
BROOKINGS      CLEAR     54  48  82 CALM      29.93R
WATERTOWN      CLEAR     57  49  74 W7        29.91R
HURON          CLEAR     53  48  83 W3        29.93R
SISSETON         N/A     61  49  64 NW9       29.86R
ABERDEEN       CLEAR     54  49  83 CALM      29.91R
MITCHELL       CLEAR     56  50  80 W9        29.95R
PIERRE         CLEAR     50  46  86 CALM      29.95S
MOBRIDGE       CLEAR     52  50  93 CALM      29.93R
RAPID CITY     MOCLDY    50  47  89 SE9       29.97S
$$

  *****  SOME WEATHER IN NEARBY STATES *****

CITY           SKY/WX    TMP DP  RH WIND       PRES   REMARKS
GLASGOW MT     LGT RAIN  62  49  62 SW14      29.90S
GREAT FALLS MT MOCLDY    47  46  97 SW10      30.01R
CHEYENNE WY    CLOUDY    49  46  90 CALM      30.09R
SCOTTSBLUFF NE PTCLDY    53  50  89 E9        30.02F
OMAHA NE       CLEAR     55  53  93 CALM      30.00R
DES MOINES IA  MOCLDY    59  55  87 W3        29.94R
DAVENPORT IA   CLOUDY    62  59  90 W13       29.91R
CHICAGO IL     PTCLDY    65  60  84 SW12      29.87R
EAU CLAIRE WI  CLOUDY    56  54  93 W5        29.84R
LA CROSSE WI   LGT RAIN  60  56  86 W6        29.85R
$$

  *****  SOME NATIONAL WEATHER *****

CITY           SKY/WX    TMP DP  RH WIND       PRES   REMARKS
LA GUARDIA NY  MOCLDY    68  61  78 S8        30.16R
RALEIGH NC     MOCLDY    71  68  90 S5        30.21R
ATLANTA GA     MOCLDY    67  64  90 CALM      30.21R
NEW ORLEANS LA PTCLDY    76  73  91 SE5       30.08F
OKLAHOMA CITY  PTCLDY    63  62  97 SE5       30.01F FOG
ALBUQUERQUE NM PTCLDY    60  45  57 NE8       30.12R
SALT LAKE CITY PTCLDY    53  47  79 SE5       30.05S
LOS ANGELES CA CLOUDY    58  54  86 SW7       30.00S
BOISE ID       PTCLDY    55  47  74 SE10      29.94F
SEATTLE WA     PTCLDY    55  51  86 S5        30.05F
$$

*** WEATHER ACROSS MANITOBA...SASKATCHEWAN AND ONTARIO ***
                ***ONTARIO***

CITY           SKY/WX    TMP DP  RH WIND       PRES   REMARKS
GERALDTON      MOCLDY    50  48  93 SW3       29.67S
THUNDER BAY    MOCLDY    52  52 100 NW5       29.70S
SIOUX LOOKOUT  MOCLDY    50  48  93 N7        29.74R
TORONTO        CLOUDY    70  64  83 SW14G24   29.93S
BIG TROUT LK   CLOUDY    30  28  93 N8        29.94R WCI  23
PICKLE LAKE    NOT AVBL
DRYDEN         CLEAR     54  48  82 NW8       29.75R
KENORA         MOCLDY    54  48  82 N8        29.80R
$$
                *** MANITOBA***

CITY           SKY/WX    TMP DP  RH WIND       PRES   REMARKS
BRANDON        PTCLDY    46  41  81 E8        29.96R
DAUPHIN        CLOUDY    45  39  81 N10       30.03R
ISLAND LAKE    PTCLDY    34  30  86 N7        30.02R
PILOT MOUND      N/A     48  43  81 N10         N/A
THE PAS        CLEAR     36  34  93 SE3       30.07R
THOMPSON       PTCLDY    21  18  86 CALM      30.07R
WINNIPEG       PTCLDY    46  41  81 N12       29.90R
LYNN LAKE      CLEAR     30  27  86 W5        30.06S
CHURCHILL      MOCLDY    30  28  93 NW15      30.02R WCI  19
GILLAM         CLEAR     25  23  93 SW6       30.04S WCI  18
$$
                ***SASKATCHEWAN***

CITY           SKY/WX    TMP DP  RH WIND       PRES   REMARKS
ESTEVAN        NOT AVBL
KINDERSLEY     CLOUDY    52  46  82 NE14      29.97R
LLOYDMINSTER   CLEAR     45  36  70 E5        30.00F
PRINCE ALBERT  PTCLDY    37  36  93 NW2       30.06R
REGINA         PTCLDY    54  46  76 E13G22    29.94R


USA.gov is the U.S. government's official web portal to all federal, state and local government web resources and services.